Location: Be Tobo
(6.6442°N, 10.6239°W)
Time: 01:04:48
(UTC+00:00)

ARIANE 5 R/B - Pass Details

Date: 18 September 2020
Orbit: 248 x 31078 km, 5.9° (Epoch: 21 October)

Event Time Altitude Azimuth Distance (km) Brightness Sun altitude
Rises 18:52:51 0° 265° (W) 15,540 11.8 -3.9°
Reaches altitude 10° 19:15:10 10° 264° (W) 8,523 9.4 -9.5°
Maximum altitude 19:33:27 77° 181° (S) 992 3.0 -14.0°
Enters shadow 19:35:48 24° 97° (E) 1,319 3.1 -14.6°
